Regional Weather Roundup
Issued by NWS

Home | Current Version | Previous Version | Text Only | Print | Product List | Glossary On
Versions: 1 2 3 4 5 6 7 8 9 10 11 12 13 14 15 16 17 18 19 20 21 22 23 24 25 26 27 28 29 30 31 32 33 34 35 36 37 38 39 40 41 42 43 44 45 46 47 48 49 50
000
ASUS43 KDTX 242310
RWRMI
MICHIGAN HOURLY REGIONAL WEATHER ROUNDUP
NATIONAL WEATHER SERVICE DETROIT/PONTIAC MI
ISSUED BY NATIONAL WEATHER SERVICE GRAND RAPIDS MI
600 PM EST TUE JAN 24 2017

NOTE: "FAIR" INDICATES FEW OR NO CLOUDS BELOW 12,000 FEET WITH NO
SIGNIFICANT WEATHER AND/OR OBSTRUCTION TO VISIBILITY.

MIZ047>049-052>055-059>063-066>070-074>076-081>083-250000-
SOUTHEAST LOWER MICHIGAN

CITY           SKY/WX    TMP DP  RH WIND       PRES   REMARKS
ADRIAN         CLOUDY    39  34  82 NW8       29.82R WCI  33
ALMA           CLOUDY    39  35  84 W6        29.80R WCI  35
ANN ARBOR      CLOUDY    37  34  89 W12       29.80R WCI  29
BAD AXE        CLOUDY    35  35  99 NW6       29.76R WCI  30
DETROIT CITY   CLOUDY    39  36  89 NW12      29.79R WCI  32
DETROIT        CLOUDY    39  35  86 NW12      29.80R WCI  32
FLINT          CLOUDY    37  34  89 W6        29.79R WCI  32
GROSSE ILE     CLOUDY    39  37  91 NW9       29.78R WCI  33
HILLSDALE      CLOUDY    37  34  87 NW6       29.80R WCI  33
HOWELL         CLOUDY    37  33  87 W6        29.79S WCI  32

CITY           SKY/WX    TMP DP  RH WIND       PRES   REMARKS
JACKSON        CLOUDY    37  33  85 NW5       29.81R WCI  33
LANSING        MOCLDY    38  33  82 W7        29.81R WCI  33
MASON          CLOUDY    37  35  90 W5        29.81R WCI  34
MONROE         CLOUDY    39  37  89 NW10      29.79R WCI  33
MT. CLEMENS    CLOUDY    39  39 100 NW12      29.75R WCI  31
PONTIAC        CLOUDY    36  33  89 W9        29.76S WCI  29
PORT HOPE        N/A     35  34  96 W7        29.74R WCI  29
PORT HURON     CLOUDY    37  37 100 W7        29.76R WCI  32
TRI CITIES     CLOUDY    38  36  92 NW5       29.79R WCI  34
YPSILANTI      CLOUDY    39  35  86 W15       29.80R WCI  31
$$
MIZ043>046-050>051-056>058-064>065-071>073-077>080-250000-
SOUTHWEST LOWER MICHIGAN

CITY           SKY/WX    TMP DP  RH WIND       PRES   REMARKS
BATTLE CREEK   CLOUDY    38  34  85 NW10      29.83R WCI  31
BENTON HARBOR  CLOUDY    37  34  89 CALM      29.84F
BIG RAPIDS     CLOUDY    37  35  92 NW6       29.79R WCI  32
COLDWATER      CLOUDY    38  35  89 NW10      29.83R WCI  31
HOLLAND        CLOUDY    39  34  82 NW8       29.84R WCI  33
GRAND RAPIDS   CLOUDY    39  33  79 W10       29.82R WCI  32
KALAMAZOO      CLOUDY    38  33  82 NW9       29.84R WCI  31
MARSHALL       CLOUDY    38  35  85 NW5       29.82R WCI  35
MOUNT PLEASANT CLOUDY    38  35  88 W5        29.78S WCI  35
MUSKEGON       CLOUDY    38  36  92 W6        29.84R WCI  33
STURGIS        CLOUDY    37  34  89 NW5       29.82F WCI  33
$$
MIZ016>042-250000-
NORTHERN LOWER MICHIGAN

CITY           SKY/WX    TMP DP  RH WIND       PRES   REMARKS
ALPENA         CLOUDY    36  34  92 CALM      29.76R
BEAVER ISLAND  CLOUDY    35  35  98 CALM      29.80R
BELLAIRE       CLOUDY    35  35 100 CALM      29.80R FOG
CADILLAC       CLOUDY    35  33  95 W7        29.76S WCI  29
CHARLEVOIX     CLOUDY    35  35 100 CALM      29.82R FOG
GAYLORD        CLOUDY    34  31  88 NW3       29.75S FOG
HOUGHTON LAKE  LGT RAIN  35  34  96 NW5       29.77S WCI  31
MANISTEE       CLOUDY    37  36  93 NW5       29.81S WCI  34
OSCODA         CLOUDY    36  35  96 W3        29.75S
PELLSTON       CLOUDY    34  32  92 W5        29.78R WCI  30
TRAVERSE CITY  CLOUDY    37  35  92 W6        29.80R FOG     WCI  32
LUDINGTON      CLOUDY    37  36  94 NW3       29.82R
$$
MIZ007>008-015-250000-
EASTERN UPPER MICHIGAN

CITY           SKY/WX    TMP DP  RH WIND       PRES   REMARKS
KINROSS        CLOUDY    34  33  96 NW6       29.76S WCI  29
MACKINAC ISLAN FOG       33  33 100 SW3       29.77R VSB 1/2
NEWBERRY       CLOUDY    34  33  96 W5        29.76S FOG     WCI  30
S. S. MARIE    LGT RAIN  35  33  92 W6        29.74F FOG     WCI  30
$$
MIZ004>006-011>014-085-250000-
CENTRAL UPPER MICHIGAN

CITY           SKY/WX    TMP DP  RH WIND       PRES   REMARKS
MANISTIQUE     CLOUDY    35  34  97 NW6       29.80R FOG     WCI  29
ESCANABA       CLOUDY    37  34  89 N5        29.82S WCI  33
SAWYER-GWINN   CLOUDY    34  32  93 CALM      29.81
$$
MIZ001>003-009>011-084-250000-
WESTERN UPPER MICHIGAN

CITY           SKY/WX    TMP DP  RH WIND       PRES   REMARKS
IRON MOUNTAIN  CLOUDY    36  32  85 NW3       29.79S
HOUGHTON       CLOUDY    34  32  92 W10       29.80S FOG     WCI  26
COPPER HARBOR    N/A     36  34  92 N5        29.82R WCI  32
IRONWOOD       CLOUDY    32  28  85 NW3       29.84R
$$

ABBREVIATIONS USED IN REMARKS
   TC - TEMPERATURE IN CELSIUS
  WCI - WIND CHILL INDEX
   HX - HEAT INDEX
  VSB - VISIBILITY




USA.gov is the U.S. government's official web portal to all federal, state and local government web resources and services.